Location: Passau
(48.5830°N, 13.4830°E)
Time: 06:31:20
(UTC+02:00)

Vanguard 1 - Pass Details

Date: 05 August 2021
Orbit: 652 x 3831 km, 34.3° (Epoch: 16 September)

Event Time Altitude Azimuth Distance (km) Brightness Sun altitude
Rises 14:15:18 0° 251° (WSW) 3,338 13.2 55.7°
Reaches altitude 10° 14:18:03 10° 233° (SW) 2,656 13.0 55.5°
Maximum altitude 14:22:35 20° 187° (S) 2,448 13.1 55.1°
Drops below altitude 10° 14:28:58 10° 144° (SE) 3,909 13.4 54.6°
Sets 14:34:16 0° 131° (SE) 5,533 14.0 54.1°
